Flag for Brunei Past Weather in Bandar Seri Begawan, Brunei — Yesterday and Last 2 Weeks

Now
91 °F

Broken clouds.


Feels Like: 105 °F
Forecast: 80 / 89 °F
Wind: 8 mph from Northwest

Location: Brunei Airport

Current Time: May 30, 2016 at 3:04:49 PM

Latest Report: May 30, 2016 at 2:30 PM


Visibility: N/A

Pressure: 29.77 "Hg

Humidity: 63%

Dew Point: 77 °F

Location of Bandar Seri BegawanLocation

Past Weather in Bandar Seri Begawan — Graph

°F

Bandar Seri Begawan Temperature Yesterday

Maximum temperature yesterday: 91 °F (at 10:30 AM)
Minimum temperature yesterday: 79 °F (at 6:00 AM)
Average temperature yesterday: 86 °F

High & Low Weather Summary for the Past Weeks

 TemperatureHumidityPressure
High97 °F (May 26, 12:30 PM)100% (May 15, 10:30 PM)29.89 "Hg (May 15, 10:30 PM)
Low77 °F (May 18, 5:00 AM)18% (May 19, 1:00 PM)29.68 "Hg (May 15, 4:00 PM)
Average85 °F81%29.81 "Hg
* Reported May 15 2:00 PM — May 30 2:00 PM, Bandar Seri Begawan, Weather by CustomWeather, © 2016

Note: Actual official high and low records may vary slightly from our data, if they occured in-between our weather recording intervals... More about our weather records

Advertising

Bandar Seri Begawan Weather History for the Previous 24 Hours

Scroll right to see more
 ConditionsComfort  
Time TempWeatherWind HumidityBarometerVisibility
2:00 PM
Mon, May 30
91 °FBroken clouds.7 mph63%29.77 "HgN/A
1:30 PM91 °FBroken clouds.3 mph67%29.77 "HgN/A
1:00 PM91 °FBroken clouds.3 mph67%29.80 "HgN/A
12:30 PM91 °FBroken clouds.5 mph63%29.80 "HgN/A
12:00 PM90 °FBroken clouds.5 mph71%29.80 "HgN/A
11:30 AM90 °FPartly sunny.5 mph71%29.83 "HgN/A
11:00 AM90 °FPartly sunny.5 mph67%29.86 "HgN/A
10:30 AM88 °FPartly sunny.6 mph75%29.86 "HgN/A
10:00 AM86 °FPartly sunny.6 mph79%29.86 "HgN/A
9:30 AM86 °FPartly sunny.5 mph79%29.89 "HgN/A
9:00 AM84 °FPartly sunny.5 mph84%29.89 "HgN/A
8:30 AM82 °FPartly sunny.5 mph89%29.89 "HgN/A
8:00 AM79 °FPartly sunny.5 mph100%29.86 "HgN/A
7:30 AM79 °FPartly sunny.6 mph94%29.86 "HgN/A
7:00 AM79 °FPartly sunny.3 mph94%29.86 "HgN/A
6:30 AM77 °FPartly sunny.6 mph100%29.83 "Hg5 mi
6:00 AM79 °FPassing clouds.8 mph100%29.83 "Hg4 mi
5:30 AM79 °FLight rain. Passing clouds.7 mph100%29.80 "HgN/A
5:00 AM79 °FLight rain. Passing clouds.5 mph100%29.80 "HgN/A
4:30 AM79 °FThunderstorms. Passing clouds.1 mph100%29.80 "Hg5 mi
4:00 AM79 °FThunderstorms. Passing clouds.2 mph100%29.80 "Hg4 mi
3:30 AM79 °FThunderstorms. Passing clouds.3 mph94%29.80 "Hg4 mi
3:00 AM79 °FThunderstorms. Partly cloudy.2 mph100%29.80 "Hg4 mi
2:30 AM79 °FThunderstorms. Partly cloudy.3 mph100%29.80 "Hg2 mi
2:00 AM81 °FThunderstorms. Partly cloudy.3 mph94%29.80 "Hg6 mi
1:30 AM81 °FThunderstorms. Partly cloudy.3 mph94%29.80 "Hg6 mi
1:00 AM81 °FThunderstorms. Partly cloudy.3 mph89%29.80 "Hg6 mi
12:30 AM79 °FThunderstorms. Partly cloudy.5 mph94%29.80 "Hg6 mi
12:00 AM81 °FThunderstorms. Partly cloudy.5 mph94%29.83 "Hg4 mi
11:30 PM
Sun, May 29
82 °FRain showers. Partly cloudy.3 mph89%29.83 "Hg2 mi
11:00 PM86 °FSprinkles. Partly cloudy.3 mph84%29.83 "HgN/A
10:30 PM86 °FSprinkles. Partly cloudy.5 mph84%29.83 "HgN/A
10:00 PM86 °FSprinkles. Partly cloudy.5 mph84%29.80 "HgN/A
9:30 PM88 °FSprinkles. Partly cloudy.6 mph79%29.80 "HgN/A
9:00 PM88 °FSprinkles. Passing clouds.6 mph79%29.80 "HgN/A
8:30 PM88 °FPartly cloudy.7 mph75%29.80 "HgN/A
8:00 PM88 °FPassing clouds.7 mph75%29.80 "HgN/A
7:30 PM88 °FPartly cloudy.6 mph75%29.80 "HgN/A
7:00 PM88 °FPassing clouds.7 mph75%29.77 "HgN/A
6:30 PM88 °FPassing clouds.6 mph75%29.74 "HgN/A
6:00 PM90 °FPartly sunny.5 mph71%29.77 "HgN/A
5:30 PM90 °FPartly sunny.6 mph71%29.74 "HgN/A
5:00 PM90 °FPartly sunny.3 mph71%29.74 "HgN/A
4:30 PM90 °FPartly sunny.3 mph67%29.74 "HgN/A
4:00 PM91 °FPartly sunny.9 mph67%29.74 "HgN/A
3:30 PM91 °FPartly sunny.9 mph67%29.74 "HgN/A
3:00 PM90 °FPartly sunny.9 mph71%29.74 "HgN/A
Weather by CustomWeather, © 2016

See weather overviewHow to use our weather pages